User: anonymous   Login
Location: Duac?
(36.9744°N, 30.6500°E)
Time: 23:39:58
(UTC+00:00)
Language:

Atlas Centaur 2 - Orbit

View from above orbital plane
View from above orbital plane
View from above satellite
View from above satellite

Ground track
Ground track

The orbit data is extracted from the following two-line orbital elements,

1   694U 63047A   24282.73694635  .00007810  00000-0  96814-3 0  9997
2   694  30.3564 198.2194 0561222 214.5418 141.7466 14.08708564 58194
Epoch (UTC): 08 October 2024 17:41:12
Eccentricity: 0.0561222
inclination: 30.3564°
perigee height: 457 km
apogee height: 1270 km
right ascension of ascending node: 198.2194°
argument of perigee: 214.5418°
revolutions per day: 14.08708564
mean anomaly at epoch: 141.7466°
orbit number at epoch: 5819

The dashed part of the orbit path shows where the satellite is in the earth's shadow,  

DLR